SCP
0 0 0 0 0 0 0 0 0 0 0 0 0 0 0 0 0 0 0 -0 0 0 0 0 0 0 0 0 0 1 1 0 0 0 0 0 0 0 0 0 0 0 0 0 0 0 0 0 0 0 0 0 0 0
0 0 0 0 0 0 0 0 0 0 0 0 0 0 0 0 0 0 0 0 0 0 0 0 0 -0 0 0 0 1 1 2 2 1 0 0 0 0 0 0 0 0 -0 -0 0 0 -0 0 0 0 0 0 0 0
0 0 0 0 0 0 0 0 0 0 0 0 0 0 0 0 0 0 0 0 0 0 0 0 0 0 0 -0 -0 0 0 1 1 2 1 0 0 -0 -0 -0 0 -0 -0 -0 0 0 0 0 0 0 0 0 0 0
0 0 0 0 0 0 0 0 0 0 0 0 0 0 0 0 0 0 0 0 0 0 0 0 -0 0 0 0 0 0 0 0 1 2 1 0 0 -0 0 0 0 0 0 -0 0 0 0 0 0 0 0 0 0 0
0 0 0 0 0 0 0 0 0 0 0 0 0 0 0 0 0 0 0 0 0 0 0 0 0 0 0 0 0 0 0 0 0 1 1 0 0 0 0 0 0 0 0 0 1 0 0 1 0 0 0 0 0 0
0 0 0 0 0 0 0 0 0 0 0 0 0 0 0 0 0 0 0 0 0 0 0 0 0 -0 -0 0 0 0 0 0 0 1 1 1 1 1 0 0 0 0 0 0 0 0 0 0 0 0 0 0 0 0
0 0 0 0 0 0 0 0 0 0 0 0 0 0 0 0 0 0 0 0 0 0 0 0 0 0 -0 0 0 0 0 0 0 1 1 1 1 1 0 0 0 0 0 0 0 0 0 0 0 0 0 0 0 0
0 0 0 0 0 0 0 0 0 0 0 0 0 0 0 0 0 0 0 0 0 0 0 0 0 0 0 0 0 0 0 0 1 0 0 0 1 0 0 0 0 0 0 0 0 0 0 0 0 0 0 0 0 0
0 0 0 0 0 0 0 0 0 0 0 0 0 0 0 0 0 0 0 0 0 0 0 0 0 0 0 0 0 0 0 0 0 0 0 0 0 0 0 0 0 0 0 0 0 0 0 0 0 0 0 0 0 0
0 0 0 0 0 0 0 0 0 0 0 0 0 0 0 0 0 0 0 0 0 0 0 0 0 0 0 0 0 0 0 0 0 0 0 0 0 0 0 0 0 0 0 0 0 0 0 0 0 0 0 0 0 0
0 0 0 0 0 0 0 0 0 0 0 0 0 0 0 0 0 0 0 0 0 0 0 0 0 0 0 0 0 0 0 0 0 0 0 0 0 0 0 0 0 0 0 0 0 0 0 0 0 0 0 0 0 0
0 0 0 0 0 0 0 0 0 0 0 0 0 0 0 0 0 0 0 0 0 0 0 0 0 0 0 0 0 0 0 0 0 0 0 0 0 0 0 0 0 0 0 -0 0 0 0 0 0 0 0 0 0 0
0 0 0 0 0 0 0 0 0 0 0 0 0 0 0 0 0 0 0 0 0 0 0 0 0 0 0 0 0 0 0 0 0 0 0 0 0 0 0 0 0 0 -0 0 0 0 0 0 0 0 0 0 0 0
0 0 0 0 0 0 0 0 0 0 0 0 0 0 0 0 0 0 0 0 0 0 0 0 0 0 0 0 0 0 0 0 0 0 0 0 0 0 0 0 0 0 0 0 0 0 0 0 0 0 0 0 0 0
0 0 0 0 0 0 0 0 0 0 0 0 0 0 0 0 0 0 0 0 0 0 0 0 0 0 0 0 0 0 0 0 0 0 0 0 0 0 0 0 0 0 0 0 0 0 0 0 0 0 0 0 0 0
0 0 0 0 0 0 0 0 0 0 0 0 0 0 0 0 0 0 -0 0 0 0 0 0 0 0 0 0 0 0 0 0 0 0 0 0 1 0 0 1 1 1 1 0 0 0 0 0 0 0 0 0 0 0
0 0 0 0 0 0 0 0 0 0 0 0 0 0 0 0 0 0 0 0 0 0 0 0 0 0 0 0 0 0 0 0 0 0 0 1 1 0 0 0 0 0 0 0 0 0 0 0 0 0 0 0 0 0
0 0 0 0 0 0 0 0 0 0 0 0 0 0 0 0 0 0 0 0 0 0 0 0 0 0 0 0 0 0 0 -0 1 1 1 0 0 0 0 0 0 0 0 0 0 0 0 0 0 0 0 0 0 0
0 0 0 0 0 0 0 0 0 0 0 0 0 0 0 0 0 0 0 0 0 0 0 0 0 0 0 0 0 0 0 1 1 1 1 0 0 0 0 0 0 0 0 0 0 0 0 0 0 0 0 0 0 0
0 0 0 0 0 0 0 0 0 0 0 0 0 0 0 0 0 0 0 0 0 0 0 0 0 0 0 0 0 0 0 0 0 0 0 0 0 0 0 0 0 0 0 0 0 0 0 0 0 0 0 0 0 0
0 0 0 0 0 0 0 0 0 0 0 0 0 0 0 0 0 0 0 0 0 0 0 0 0 0 0 0 0 0 0 0 0 0 0 0 0 0 0 0 0 0 0 0 0 0 0 0 0 0 0 0 0 0
0 0 0 0 0 -0 0 0 0 0 0 0 0 0 0 0 0 0 0 0 0 0 0 0 0 0 0 0 0 0 0 0 0 0 0 0 0 0 0 0 0 0 0 0 0 0 0 0 0 0 0 0 0 0
0 0 0 0 0 0 0 0 0 0 0 0 0 0 0 -0 -0 0 0 0 0 0 0 0 0 0 0 0 0 0 0 0 0 0 0 0 0 0 0 0 0 0 0 0 0 0 0 0 0 0 0 0 0 0
0 0 0 0 0 0 0 0 0 0 0 0 0 0 0 0 0 0 0 0 0 0 0 0 0 0 0 0 0 0 0 0 0 0 0 0 0 0 0 0 0 0 0 0 0 0 0 0 0 0 0 0 0 0
0 0 0 0 0 0 0 0 0 0 0 0 0 0 0 0 0 0 0 0 0 0 0 0 0 0 0 0 0 0 0 0 0 0 0 0 0 0 0 0 0 0 0 0 0 0 0 0 0 0 0 0 0 0
0 0 0 0 0 0 0 0 0 0 0 0 0 0 0 0 0 0 0 0 0 0 0 0 0 0 0 0 0 0 0 0 0 0 0 0 0 0 0 0 0 0 0 0 0 0 0 0 0 0 0 0 0 0
0 0 0 0 0 0 0 0 0 0 0 0 0 0 0 0 0 0 0 0 0 0 0 0 0 0 0 0 0 0 0 0 0 0 0 0 0 0 0 0 0 0 0 0 0 0 0 0 0 0 0 0 0 0
0 0 0 0 0 0 0 0 0 0 0 0 0 0 0 0 0 0 0 0 0 0 0 0 0 0 0 0 0 0 0 0 0 0 0 0 0 0 0 0 0 0 0 0 0 0 0 0 0 0 0 0 0 0
0 0 0 0 0 0 0 0 0 0 0 0 0 0 0 0 0 0 0 0 0 0 0 0 0 0 0 0 0 0 0 0 0 0 0 0 0 0 0 0 0 0 0 0 0 0 0 0 0 0 0 0 0 0
0 0 0 0 0 0 0 0 0 0 0 0 0 0 0 0 0 0 0 0 0 0 0 0 0 0 0 0 0 0 0 0 0 0 0 0 0 0 0 0 0 0 0 0 0 0 0 0 0 0 0 0 0 0
-0 -0 -0 -0 0 -0 -0 -0 -0 -0 0 0 0 0 0 0 0 0 0 0 0 0 0 0 0 0 0 0 0 0 0 0 0 0 0 0 0 0 0 0 0 0 0 0 0 0 0 0 0 0 0 0 0 0
-0 0 0 0 -0 0 0 -0 -0 -0 0 0 -0 0 0 0 0 0 0 0 0 0 0 0 0 0 0 0 0 0 0 0 0 0 0 0 0 0 0 0 0 0 0 0 0 0 0 0 0 0 0 0 0 0
0 0 0 -0 -0 0 0 -0 -0 -0 0 -0 0 0 0 0 0 0 0 0 0 0 0 0 0 0 0 0 0 0 0 0 0 0 0 0 0 0 0 0 0 0 0 0 0 0 0 0 0 0 0 0 0 0
Wind_Speed_500mb
47 46 43 39 34 28 22 16 11 7 2 3 6 10 13 17 19 14 10 28 26 8 8 18 18 24 23 16 5 20 8 7 3 1 0 7 9 8 7 12 9 9 7 8 9 4 3 7 3 5 19 34 32 19
46 47 47 43 36 31 24 17 10 5 1 3 6 9 12 15 16 16 12 16 17 12 7 13 10 13 15 16 15 11 15 17 16 4 7 9 5 7 12 6 6 2 11 10 10 7 24 12 20 36 42 44 33 28
58 47 48 45 41 34 25 17 12 8 5 5 6 7 10 13 16 19 20 30 6 11 21 7 4 14 15 13 21 12 10 29 24 29 5 7 7 9 12 8 8 12 13 7 12 9 20 31 27 39 37 40 33 28
36 55 46 48 43 35 28 20 14 11 9 8 8 6 9 11 13 18 18 28 14 7 7 3 10 9 14 6 9 14 9 40 35 26 11 6 8 23 11 12 7 11 31 21 5 26 20 17 39 34 33 38 36 31
38 31 52 47 49 37 32 25 18 14 13 12 11 9 9 9 11 14 9 19 30 13 7 12 3 9 10 9 8 8 14 21 19 13 3 3 8 8 7 7 4 7 3 6 5 16 20 21 23 11 16 18 33 36
42 38 33 48 49 45 35 28 21 19 19 16 14 11 9 8 8 4 1 10 26 19 8 7 5 1 9 15 13 10 13 11 14 11 8 9 6 6 5 3 6 30 33 28 16 15 10 8 12 13 13 24 34 35
45 48 38 33 46 47 41 31 23 20 20 18 16 13 9 7 6 3 1 10 20 11 7 11 4 4 8 8 7 14 10 10 11 11 12 6 6 7 3 6 13 34 30 24 20 14 12 4 9 18 10 5 7 33
48 47 42 35 34 37 34 29 25 21 20 18 16 13 9 6 4 4 4 10 15 7 4 6 8 9 5 6 3 15 14 10 5 9 6 6 5 4 2 7 11 9 12 13 7 5 5 13 19 16 14 14 15 14
42 46 44 45 36 31 28 26 22 18 16 16 12 7 6 3 3 6 11 11 8 5 5 8 5 2 1 4 5 6 4 5 2 4 8 16 5 3 5 9 8 9 6 6 3 9 18 19 25 14 6 3 9 15
42 48 45 44 39 34 28 22 17 12 10 9 9 3 2 9 8 5 4 5 3 3 5 9 11 6 3 8 5 7 6 4 3 11 9 7 6 35 15 17 14 13 11 5 4 8 11 17 25 17 10 5 2 11
40 44 43 49 43 38 30 18 13 11 12 12 4 3 2 4 6 4 6 10 13 9 13 14 17 6 4 3 2 5 4 6 3 9 10 7 3 20 29 27 20 15 11 14 15 17 18 15 11 22 25 25 21 20
39 41 46 42 42 36 31 26 21 24 14 9 5 7 5 4 6 8 6 8 10 9 20 13 14 15 4 2 1 7 4 5 6 7 5 2 5 17 24 23 13 7 4 10 13 15 11 14 20 29 30 28 25 22
38 39 43 45 41 37 34 32 29 25 15 11 3 4 7 10 3 9 10 8 7 6 14 14 5 7 4 4 8 5 5 6 9 2 6 5 22 20 17 11 9 4 4 5 6 6 26 34 35 35 33 22 10 5
37 38 41 46 42 39 40 32 31 23 14 4 10 5 8 7 9 10 10 10 18 16 23 24 8 5 7 1 6 5 7 3 6 7 6 7 23 19 16 9 11 8 5 3 11 51 43 45 42 35 30 24 22 21
37 35 37 44 46 38 37 36 36 30 12 4 7 9 11 22 24 31 38 37 22 18 31 13 6 13 10 6 8 5 6 8 9 8 6 29 28 18 15 12 13 16 11 19 35 43 43 38 34 33 26 23 22 20
38 34 37 41 44 43 38 35 33 25 7 3 8 9 19 25 31 34 42 25 21 20 15 9 6 7 9 6 8 9 7 8 7 14 34 29 22 23 20 17 20 28 41 44 42 39 36 34 34 32 26 20 13 13
41 20 38 39 42 42 37 40 20 9 9 5 13 20 25 33 36 40 21 29 28 19 6 8 7 10 10 7 7 5 10 9 16 37 35 28 26 24 25 26 27 33 40 43 42 39 38 34 28 25 24 25 18 12
40 19 21 43 51 46 46 23 17 13 12 21 14 16 20 29 39 41 26 31 21 13 16 7 9 4 5 6 3 12 33 28 43 48 40 35 30 25 25 26 24 27 32 34 35 34 27 24 26 20 10 8 1 11
23 27 27 50 60 29 12 22 15 10 22 17 32 28 20 25 28 28 20 9 20 8 6 7 7 4 6 8 27 37 26 47 51 43 38 32 30 25 30 31 30 29 29 30 32 32 27 21 17 12 3 6 14 12
22 30 36 47 61 10 7 8 32 11 10 26 32 29 21 21 30 29 30 4 9 4 6 6 8 15 5 16 14 16 21 10 18 23 27 31 26 28 28 28 28 27 26 24 22 17 18 20 12 4 5 14 17 19
29 36 40 43 46 14 10 13 19 15 14 10 27 37 22 16 23 38 36 19 18 18 9 19 20 18 12 10 10 9 15 20 34 23 22 35 30 28 27 26 27 26 22 24 28 26 18 17 11 8 12 12 18 18
31 52 46 33 15 14 10 15 13 11 20 21 27 31 17 24 32 39 43 36 34 31 27 29 31 29 22 20 18 17 13 9 3 11 42 40 40 33 28 30 24 26 31 27 35 30 20 15 11 14 14 15 9 18
52 43 25 16 8 13 13 14 13 12 10 25 33 28 20 28 46 46 20 23 37 37 40 42 38 35 27 22 13 5 10 15 18 9 18 34 33 32 39 33 25 32 29 27 25 19 16 15 17 13 7 19 25 23
35 21 11 19 17 11 12 15 11 10 7 22 22 29 24 37 40 35 21 42 46 45 41 39 41 38 38 34 31 25 20 21 22 27 16 38 34 36 38 36 39 29 32 28 24 19 15 12 6 3 16 18 23 27
12 12 8 13 15 13 14 14 18 13 15 11 17 7 9 18 11 19 26 45 47 47 49 48 46 40 41 37 38 41 36 38 37 31 33 38 40 34 41 39 34 32 28 23 17 16 7 8 13 15 16 18 23 17
7 13 17 23 20 14 15 15 16 18 18 22 12 12 14 5 7 11 20 41 37 43 45 43 32 32 38 39 36 25 32 34 39 40 44 38 50 48 50 48 43 34 30 25 27 22 19 19 18 15 9 7 11 15
7 12 16 16 15 16 14 21 23 22 16 11 8 15 6 16 15 11 23 13 9 13 16 29 31 27 23 21 18 18 23 27 39 48 34 40 40 36 42 34 33 42 39 31 29 21 17 16 15 12 13 13 16 16
8 10 7 14 18 17 15 17 12 10 5 7 12 14 8 4 3 3 4 7 12 11 9 12 12 22 28 33 37 38 30 21 18 17 23 16 26 43 36 30 44 44 39 36 24 18 16 18 19 16 14 11 10 11
10 9 9 14 8 6 10 9 17 12 10 16 14 6 7 10 6 11 23 22 19 6 12 11 18 21 19 20 30 34 37 37 28 31 28 34 16 26 27 28 29 25 20 11 10 16 18 18 20 21 18 17 17 19
10 15 9 13 21 14 19 19 18 26 28 15 17 17 23 26 19 14 18 19 19 16 18 22 19 27 25 22 27 32 34 33 35 33 48 40 23 10 11 13 13 9 6 19 18 21 18 19 18 17 9 4 10 11
14 15 10 11 13 26 33 33 26 26 29 26 24 24 29 32 37 32 28 23 22 29 32 28 25 26 28 23 25 28 37 29 30 30 41 35 23 21 30 27 28 29 30 31 24 19 16 14 25 25 18 12 9 5
16 17 11 8 12 22 26 20 19 22 25 30 32 30 32 29 26 26 27 31 35 36 34 29 30 22 14 9 18 23 22 19 38 29 26 35 29 26 35 38 37 40 40 36 36 35 34 28 28 20 10 7 6 3
19 21 23 19 12 11 19 14 10 11 22 32 31 32 34 29 21 27 22 22 34 37 39 38 28 24 20 21 23 23 25 26 29 33 42 39 39 39 34 32 30 30 30 25 24 21 18 14 12 10 8 7 5 7
Wind_Direction_500mb
182 184 182 180 179 177 174 171 165 161 153 12 0 11 16 17 18 34 23 352 356 270 327 2 5 27 13 25 40 334 360 357 148 330 76 92 41 10 28 4 349 101 12 331 356 342 60 300 75 166 157 126 129 126
186 188 186 184 183 182 176 177 179 183 223 347 356 4 8 10 10 15 332 311 327 264 253 351 32 54 51 3 342 333 309 357 336 328 66 91 124 26 334 325 285 322 182 189 155 232 250 136 132 146 157 153 152 141
195 194 189 188 185 185 187 194 212 235 273 322 339 0 351 360 4 5 358 355 8 318 307 237 111 349 7 6 342 9 349 345 320 333 315 134 133 138 181 230 131 288 214 240 153 230 194 156 157 164 168 166 167 160
179 202 196 195 198 197 197 204 217 238 261 297 309 323 336 354 357 358 359 3 9 324 291 48 2 360 347 6 12 348 248 281 298 292 270 140 142 188 185 229 110 193 163 215 76 9 62 141 168 170 182 174 169 171
194 195 201 200 203 208 207 209 222 245 262 278 293 312 327 335 350 357 9 15 11 22 315 311 324 255 306 341 350 295 273 292 301 288 302 55 99 117 110 64 4 73 228 108 171 80 87 37 51 169 165 176 186 179
196 199 196 203 205 201 209 214 229 253 263 269 283 295 312 317 338 36 154 4 358 358 348 319 32 216 314 313 316 334 344 315 313 309 11 77 98 102 95 137 60 113 106 111 129 100 78 33 13 326 305 230 204 198
194 197 190 188 194 206 204 214 231 251 265 266 270 277 293 311 322 320 319 328 354 341 4 304 243 188 351 319 350 342 324 337 338 327 14 91 88 66 80 126 67 86 81 77 68 52 16 338 301 354 10 295 328 218
198 203 204 204 194 197 210 223 239 254 266 266 259 265 275 289 289 322 329 317 338 336 262 287 275 148 29 297 50 353 334 338 342 352 25 37 89 80 23 101 93 80 98 92 92 72 10 331 303 279 301 285 275 303
196 198 203 206 208 207 214 226 240 252 271 265 239 259 280 237 149 236 301 305 287 291 307 307 289 15 46 67 358 322 314 324 228 37 337 11 341 177 243 221 275 328 90 113 340 302 317 281 320 241 214 317 290 328
194 196 193 198 207 210 209 224 229 248 252 195 163 149 277 195 236 283 260 290 262 224 242 256 299 286 342 67 347 312 205 249 238 228 178 154 229 263 270 242 220 225 215 216 288 312 300 336 349 280 191 141 182 22
193 193 193 193 199 199 196 194 201 195 160 145 120 35 319 180 201 199 241 209 194 208 214 228 246 277 280 137 235 250 281 254 219 256 145 178 267 254 267 237 189 212 245 280 266 268 272 281 335 107 102 94 88 70
192 191 192 193 197 198 193 189 182 162 160 174 172 164 136 214 230 229 215 208 223 217 185 189 221 211 281 77 298 244 230 303 283 348 53 89 249 126 127 144 160 181 227 284 307 279 253 271 137 112 96 86 79 72
191 191 192 192 192 190 184 181 175 181 159 133 136 194 206 208 187 221 201 190 200 248 151 169 157 146 133 192 256 246 225 257 287 210 205 193 136 125 128 132 162 227 264 299 255 205 137 117 109 105 100 97 96 76
190 190 192 191 190 191 192 182 177 170 160 190 201 318 196 230 218 223 230 226 209 224 182 165 138 161 185 207 271 275 219 244 253 188 248 176 148 143 138 144 147 154 145 8 83 130 127 119 110 109 107 109 113 104
186 187 188 191 191 185 185 186 183 185 182 251 294 212 208 233 240 229 232 239 255 183 150 137 183 195 198 246 192 289 229 213 217 205 188 145 148 149 143 131 116 148 168 129 126 117 118 122 121 111 110 107 102 95
179 181 190 190 189 186 182 178 178 188 213 279 249 267 274 227 252 257 238 237 158 148 154 191 228 190 230 220 201 229 202 220 233 145 143 146 146 141 138 138 129 117 123 125 122 123 123 119 114 110 102 85 71 66
179 186 188 180 176 177 178 172 163 170 204 232 251 262 276 282 272 290 250 157 165 161 194 220 239 202 242 190 240 265 226 251 133 134 144 149 146 142 141 130 123 121 124 129 129 126 120 122 128 125 113 84 115 78
173 176 188 177 170 167 177 162 168 188 219 234 255 262 261 271 303 322 325 161 155 187 224 252 297 269 262 285 269 252 279 287 155 149 152 159 154 144 142 136 137 132 127 125 125 125 126 126 112 105 112 140 36 357
174 180 175 181 174 162 140 171 170 213 216 235 246 262 293 304 292 299 339 163 159 166 232 266 233 241 262 354 28 24 41 129 131 141 146 156 154 158 153 150 149 149 146 143 146 140 131 144 148 142 167 2 22 355
172 177 177 182 181 161 135 202 184 238 242 216 229 244 260 267 286 299 311 273 192 161 242 250 205 230 59 52 62 62 59 104 111 117 134 154 159 165 160 161 161 161 161 155 148 128 139 131 127 166 302 347 338 330
169 170 175 178 187 212 200 205 203 212 239 259 213 216 229 276 294 293 287 271 240 217 223 253 260 254 26 11 340 346 10 53 169 156 189 169 167 171 172 174 192 189 188 186 172 164 160 178 180 255 330 327 327 0
156 163 163 172 174 199 266 243 227 205 208 229 199 203 211 210 248 259 266 260 239 230 233 246 260 275 298 307 274 287 294 280 42 147 192 176 170 180 194 197 195 202 214 203 168 157 170 200 246 285 307 316 292 290
150 154 151 160 176 210 245 226 221 221 226 206 227 213 219 213 222 234 241 247 250 248 242 250 259 266 287 297 300 283 263 247 244 218 214 193 187 194 195 196 212 220 200 180 186 177 198 235 277 318 293 288 314 321
143 166 164 180 197 227 206 201 220 207 249 234 201 213 219 215 226 225 231 234 244 252 255 248 249 255 256 258 260 261 262 276 270 237 261 204 197 206 206 207 201 180 157 158 174 190 220 257 299 269 272 295 310 327
173 191 191 219 206 227 193 188 209 229 208 281 243 206 229 235 236 227 221 228 234 240 250 258 259 256 252 256 243 247 251 258 253 257 252 225 206 220 196 186 186 188 191 178 191 214 221 202 225 244 272 301 331 344
219 218 205 204 195 184 194 196 201 215 234 221 232 227 220 68 294 254 238 242 242 235 238 236 240 246 252 259 247 255 255 269 245 238 244 236 216 218 202 192 181 179 206 214 204 212 206 228 241 251 257 283 312 313
223 237 203 226 184 173 212 219 217 212 217 226 222 241 236 219 198 228 250 291 279 271 270 257 264 247 255 243 238 261 284 283 239 227 250 223 203 186 194 185 201 198 197 206 205 204 201 223 233 243 256 262 270 290
255 303 291 183 166 211 250 248 235 239 238 286 219 215 233 253 237 300 317 326 13 326 259 265 259 245 251 256 256 262 270 269 216 192 196 182 202 177 171 172 164 168 184 193 184 193 208 217 230 240 265 292 306 273
226 246 268 260 251 206 208 244 252 240 212 243 245 256 302 4 323 298 290 293 259 282 276 261 264 266 272 272 262 264 265 264 251 225 191 152 177 134 160 170 170 173 185 207 267 280 264 266 281 285 278 260 259 260
212 181 215 242 234 222 226 227 248 254 273 304 274 269 263 263 263 257 260 274 254 226 274 267 271 265 261 257 259 243 240 234 193 207 195 185 170 170 237 160 140 145 227 244 239 239 245 267 282 295 316 215 247 283
166 184 220 240 257 252 252 252 259 262 265 272 276 279 261 267 268 258 254 246 241 239 246 262 258 278 260 244 243 231 220 207 193 204 231 231 227 233 236 216 190 193 185 191 204 217 222 225 239 261 268 244 249 273
184 198 201 228 257 259 252 248 240 236 246 255 257 261 270 265 264 265 247 233 237 233 239 247 248 269 259 257 259 243 234 249 199 233 219 202 204 199 199 192 199 209 219 226 229 231 238 245 257 259 242 212 217 236
205 213 222 253 260 245 230 212 221 245 239 234 241 237 236 232 238 249 258 250 243 241 242 239 243 245 250 245 240 222 205 217 209 196 200 199 201 203 197 214 222 224 220 229 236 231 223 212 225 220 171 171 198 242
Wind_Speed_850mb
47 46 43 39 34 28 22 16 11 7 2 3 6 10 13 17 19 14 10 28 26 8 8 18 18 24 23 16 5 20 8 7 3 1 0 7 9 8 7 12 9 9 7 8 9 4 3 7 3 5 19 34 32 19
46 47 47 43 36 31 24 17 10 5 1 3 6 9 12 15 16 16 12 16 17 12 7 13 10 13 15 16 15 11 15 17 16 4 7 9 5 7 12 6 6 2 11 10 10 7 24 12 20 36 42 44 33 28
58 47 48 45 41 34 25 17 12 8 5 5 6 7 10 13 16 19 20 30 6 11 21 7 4 14 15 13 21 12 10 29 24 29 5 7 7 9 12 8 8 12 13 7 12 9 20 31 27 39 37 40 33 28
36 55 46 48 43 35 28 20 14 11 9 8 8 6 9 11 13 18 18 28 14 7 7 3 10 9 14 6 9 14 9 40 35 26 11 6 8 23 11 12 7 11 31 21 5 26 20 17 39 34 33 38 36 31
38 31 52 47 49 37 32 25 18 14 13 12 11 9 9 9 11 14 9 19 30 13 7 12 3 9 10 9 8 8 14 21 19 13 3 3 8 8 7 7 4 7 3 6 5 16 20 21 23 11 16 18 33 36
42 38 33 48 49 45 35 28 21 19 19 16 14 11 9 8 8 4 1 10 26 19 8 7 5 1 9 15 13 10 13 11 14 11 8 9 6 6 5 3 6 30 33 28 16 15 10 8 12 13 13 24 34 35
45 48 38 33 46 47 41 31 23 20 20 18 16 13 9 7 6 3 1 10 20 11 7 11 4 4 8 8 7 14 10 10 11 11 12 6 6 7 3 6 13 34 30 24 20 14 12 4 9 18 10 5 7 33
48 47 42 35 34 37 34 29 25 21 20 18 16 13 9 6 4 4 4 10 15 7 4 6 8 9 5 6 3 15 14 10 5 9 6 6 5 4 2 7 11 9 12 13 7 5 5 13 19 16 14 14 15 14
42 46 44 45 36 31 28 26 22 18 16 16 12 7 6 3 3 6 11 11 8 5 5 8 5 2 1 4 5 6 4 5 2 4 8 16 5 3 5 9 8 9 6 6 3 9 18 19 25 14 6 3 9 15
42 48 45 44 39 34 28 22 17 12 10 9 9 3 2 9 8 5 4 5 3 3 5 9 11 6 3 8 5 7 6 4 3 11 9 7 6 35 15 17 14 13 11 5 4 8 11 17 25 17 10 5 2 11
40 44 43 49 43 38 30 18 13 11 12 12 4 3 2 4 6 4 6 10 13 9 13 14 17 6 4 3 2 5 4 6 3 9 10 7 3 20 29 27 20 15 11 14 15 17 18 15 11 22 25 25 21 20
39 41 46 42 42 36 31 26 21 24 14 9 5 7 5 4 6 8 6 8 10 9 20 13 14 15 4 2 1 7 4 5 6 7 5 2 5 17 24 23 13 7 4 10 13 15 11 14 20 29 30 28 25 22
38 39 43 45 41 37 34 32 29 25 15 11 3 4 7 10 3 9 10 8 7 6 14 14 5 7 4 4 8 5 5 6 9 2 6 5 22 20 17 11 9 4 4 5 6 6 26 34 35 35 33 22 10 5
37 38 41 46 42 39 40 32 31 23 14 4 10 5 8 7 9 10 10 10 18 16 23 24 8 5 7 1 6 5 7 3 6 7 6 7 23 19 16 9 11 8 5 3 11 51 43 45 42 35 30 24 22 21
37 35 37 44 46 38 37 36 36 30 12 4 7 9 11 22 24 31 38 37 22 18 31 13 6 13 10 6 8 5 6 8 9 8 6 29 28 18 15 12 13 16 11 19 35 43 43 38 34 33 26 23 22 20
38 34 37 41 44 43 38 35 33 25 7 3 8 9 19 25 31 34 42 25 21 20 15 9 6 7 9 6 8 9 7 8 7 14 34 29 22 23 20 17 20 28 41 44 42 39 36 34 34 32 26 20 13 13
41 20 38 39 42 42 37 40 20 9 9 5 13 20 25 33 36 40 21 29 28 19 6 8 7 10 10 7 7 5 10 9 16 37 35 28 26 24 25 26 27 33 40 43 42 39 38 34 28 25 24 25 18 12
40 19 21 43 51 46 46 23 17 13 12 21 14 16 20 29 39 41 26 31 21 13 16 7 9 4 5 6 3 12 33 28 43 48 40 35 30 25 25 26 24 27 32 34 35 34 27 24 26 20 10 8 1 11
23 27 27 50 60 29 12 22 15 10 22 17 32 28 20 25 28 28 20 9 20 8 6 7 7 4 6 8 27 37 26 47 51 43 38 32 30 25 30 31 30 29 29 30 32 32 27 21 17 12 3 6 14 12
22 30 36 47 61 10 7 8 32 11 10 26 32 29 21 21 30 29 30 4 9 4 6 6 8 15 5 16 14 16 21 10 18 23 27 31 26 28 28 28 28 27 26 24 22 17 18 20 12 4 5 14 17 19
29 36 40 43 46 14 10 13 19 15 14 10 27 37 22 16 23 38 36 19 18 18 9 19 20 18 12 10 10 9 15 20 34 23 22 35 30 28 27 26 27 26 22 24 28 26 18 17 11 8 12 12 18 18
31 52 46 33 15 14 10 15 13 11 20 21 27 31 17 24 32 39 43 36 34 31 27 29 31 29 22 20 18 17 13 9 3 11 42 40 40 33 28 30 24 26 31 27 35 30 20 15 11 14 14 15 9 18
52 43 25 16 8 13 13 14 13 12 10 25 33 28 20 28 46 46 20 23 37 37 40 42 38 35 27 22 13 5 10 15 18 9 18 34 33 32 39 33 25 32 29 27 25 19 16 15 17 13 7 19 25 23
35 21 11 19 17 11 12 15 11 10 7 22 22 29 24 37 40 35 21 42 46 45 41 39 41 38 38 34 31 25 20 21 22 27 16 38 34 36 38 36 39 29 32 28 24 19 15 12 6 3 16 18 23 27
12 12 8 13 15 13 14 14 18 13 15 11 17 7 9 18 11 19 26 45 47 47 49 48 46 40 41 37 38 41 36 38 37 31 33 38 40 34 41 39 34 32 28 23 17 16 7 8 13 15 16 18 23 17
7 13 17 23 20 14 15 15 16 18 18 22 12 12 14 5 7 11 20 41 37 43 45 43 32 32 38 39 36 25 32 34 39 40 44 38 50 48 50 48 43 34 30 25 27 22 19 19 18 15 9 7 11 15
7 12 16 16 15 16 14 21 23 22 16 11 8 15 6 16 15 11 23 13 9 13 16 29 31 27 23 21 18 18 23 27 39 48 34 40 40 36 42 34 33 42 39 31 29 21 17 16 15 12 13 13 16 16
8 10 7 14 18 17 15 17 12 10 5 7 12 14 8 4 3 3 4 7 12 11 9 12 12 22 28 33 37 38 30 21 18 17 23 16 26 43 36 30 44 44 39 36 24 18 16 18 19 16 14 11 10 11
10 9 9 14 8 6 10 9 17 12 10 16 14 6 7 10 6 11 23 22 19 6 12 11 18 21 19 20 30 34 37 37 28 31 28 34 16 26 27 28 29 25 20 11 10 16 18 18 20 21 18 17 17 19
10 15 9 13 21 14 19 19 18 26 28 15 17 17 23 26 19 14 18 19 19 16 18 22 19 27 25 22 27 32 34 33 35 33 48 40 23 10 11 13 13 9 6 19 18 21 18 19 18 17 9 4 10 11
14 15 10 11 13 26 33 33 26 26 29 26 24 24 29 32 37 32 28 23 22 29 32 28 25 26 28 23 25 28 37 29 30 30 41 35 23 21 30 27 28 29 30 31 24 19 16 14 25 25 18 12 9 5
16 17 11 8 12 22 26 20 19 22 25 30 32 30 32 29 26 26 27 31 35 36 34 29 30 22 14 9 18 23 22 19 38 29 26 35 29 26 35 38 37 40 40 36 36 35 34 28 28 20 10 7 6 3
19 21 23 19 12 11 19 14 10 11 22 32 31 32 34 29 21 27 22 22 34 37 39 38 28 24 20 21 23 23 25 26 29 33 42 39 39 39 34 32 30 30 30 25 24 21 18 14 12 10 8 7 5 7
Wind_Direction_850mb
182 184 182 180 179 177 174 171 165 161 153 12 0 11 16 17 18 34 23 352 356 270 327 2 5 27 13 25 40 334 360 357 148 330 76 92 41 10 28 4 349 101 12 331 356 342 60 300 75 166 157 126 129 126
186 188 186 184 183 182 176 177 179 183 223 347 356 4 8 10 10 15 332 311 327 264 253 351 32 54 51 3 342 333 309 357 336 328 66 91 124 26 334 325 285 322 182 189 155 232 250 136 132 146 157 153 152 141
195 194 189 188 185 185 187 194 212 235 273 322 339 0 351 360 4 5 358 355 8 318 307 237 111 349 7 6 342 9 349 345 320 333 315 134 133 138 181 230 131 288 214 240 153 230 194 156 157 164 168 166 167 160
179 202 196 195 198 197 197 204 217 238 261 297 309 323 336 354 357 358 359 3 9 324 291 48 2 360 347 6 12 348 248 281 298 292 270 140 142 188 185 229 110 193 163 215 76 9 62 141 168 170 182 174 169 171
194 195 201 200 203 208 207 209 222 245 262 278 293 312 327 335 350 357 9 15 11 22 315 311 324 255 306 341 350 295 273 292 301 288 302 55 99 117 110 64 4 73 228 108 171 80 87 37 51 169 165 176 186 179
196 199 196 203 205 201 209 214 229 253 263 269 283 295 312 317 338 36 154 4 358 358 348 319 32 216 314 313 316 334 344 315 313 309 11 77 98 102 95 137 60 113 106 111 129 100 78 33 13 326 305 230 204 198
194 197 190 188 194 206 204 214 231 251 265 266 270 277 293 311 322 320 319 328 354 341 4 304 243 188 351 319 350 342 324 337 338 327 14 91 88 66 80 126 67 86 81 77 68 52 16 338 301 354 10 295 328 218
198 203 204 204 194 197 210 223 239 254 266 266 259 265 275 289 289 322 329 317 338 336 262 287 275 148 29 297 50 353 334 338 342 352 25 37 89 80 23 101 93 80 98 92 92 72 10 331 303 279 301 285 275 303
196 198 203 206 208 207 214 226 240 252 271 265 239 259 280 237 149 236 301 305 287 291 307 307 289 15 46 67 358 322 314 324 228 37 337 11 341 177 243 221 275 328 90 113 340 302 317 281 320 241 214 317 290 328
194 196 193 198 207 210 209 224 229 248 252 195 163 149 277 195 236 283 260 290 262 224 242 256 299 286 342 67 347 312 205 249 238 228 178 154 229 263 270 242 220 225 215 216 288 312 300 336 349 280 191 141 182 22
193 193 193 193 199 199 196 194 201 195 160 145 120 35 319 180 201 199 241 209 194 208 214 228 246 277 280 137 235 250 281 254 219 256 145 178 267 254 267 237 189 212 245 280 266 268 272 281 335 107 102 94 88 70
192 191 192 193 197 198 193 189 182 162 160 174 172 164 136 214 230 229 215 208 223 217 185 189 221 211 281 77 298 244 230 303 283 348 53 89 249 126 127 144 160 181 227 284 307 279 253 271 137 112 96 86 79 72
191 191 192 192 192 190 184 181 175 181 159 133 136 194 206 208 187 221 201 190 200 248 151 169 157 146 133 192 256 246 225 257 287 210 205 193 136 125 128 132 162 227 264 299 255 205 137 117 109 105 100 97 96 76
190 190 192 191 190 191 192 182 177 170 160 190 201 318 196 230 218 223 230 226 209 224 182 165 138 161 185 207 271 275 219 244 253 188 248 176 148 143 138 144 147 154 145 8 83 130 127 119 110 109 107 109 113 104
186 187 188 191 191 185 185 186 183 185 182 251 294 212 208 233 240 229 232 239 255 183 150 137 183 195 198 246 192 289 229 213 217 205 188 145 148 149 143 131 116 148 168 129 126 117 118 122 121 111 110 107 102 95
179 181 190 190 189 186 182 178 178 188 213 279 249 267 274 227 252 257 238 237 158 148 154 191 228 190 230 220 201 229 202 220 233 145 143 146 146 141 138 138 129 117 123 125 122 123 123 119 114 110 102 85 71 66
179 186 188 180 176 177 178 172 163 170 204 232 251 262 276 282 272 290 250 157 165 161 194 220 239 202 242 190 240 265 226 251 133 134 144 149 146 142 141 130 123 121 124 129 129 126 120 122 128 125 113 84 115 78
173 176 188 177 170 167 177 162 168 188 219 234 255 262 261 271 303 322 325 161 155 187 224 252 297 269 262 285 269 252 279 287 155 149 152 159 154 144 142 136 137 132 127 125 125 125 126 126 112 105 112 140 36 357
174 180 175 181 174 162 140 171 170 213 216 235 246 262 293 304 292 299 339 163 159 166 232 266 233 241 262 354 28 24 41 129 131 141 146 156 154 158 153 150 149 149 146 143 146 140 131 144 148 142 167 2 22 355
172 177 177 182 181 161 135 202 184 238 242 216 229 244 260 267 286 299 311 273 192 161 242 250 205 230 59 52 62 62 59 104 111 117 134 154 159 165 160 161 161 161 161 155 148 128 139 131 127 166 302 347 338 330
169 170 175 178 187 212 200 205 203 212 239 259 213 216 229 276 294 293 287 271 240 217 223 253 260 254 26 11 340 346 10 53 169 156 189 169 167 171 172 174 192 189 188 186 172 164 160 178 180 255 330 327 327 0
156 163 163 172 174 199 266 243 227 205 208 229 199 203 211 210 248 259 266 260 239 230 233 246 260 275 298 307 274 287 294 280 42 147 192 176 170 180 194 197 195 202 214 203 168 157 170 200 246 285 307 316 292 290
150 154 151 160 176 210 245 226 221 221 226 206 227 213 219 213 222 234 241 247 250 248 242 250 259 266 287 297 300 283 263 247 244 218 214 193 187 194 195 196 212 220 200 180 186 177 198 235 277 318 293 288 314 321
143 166 164 180 197 227 206 201 220 207 249 234 201 213 219 215 226 225 231 234 244 252 255 248 249 255 256 258 260 261 262 276 270 237 261 204 197 206 206 207 201 180 157 158 174 190 220 257 299 269 272 295 310 327
173 191 191 219 206 227 193 188 209 229 208 281 243 206 229 235 236 227 221 228 234 240 250 258 259 256 252 256 243 247 251 258 253 257 252 225 206 220 196 186 186 188 191 178 191 214 221 202 225 244 272 301 331 344
219 218 205 204 195 184 194 196 201 215 234 221 232 227 220 68 294 254 238 242 242 235 238 236 240 246 252 259 247 255 255 269 245 238 244 236 216 218 202 192 181 179 206 214 204 212 206 228 241 251 257 283 312 313
223 237 203 226 184 173 212 219 217 212 217 226 222 241 236 219 198 228 250 291 279 271 270 257 264 247 255 243 238 261 284 283 239 227 250 223 203 186 194 185 201 198 197 206 205 204 201 223 233 243 256 262 270 290
255 303 291 183 166 211 250 248 235 239 238 286 219 215 233 253 237 300 317 326 13 326 259 265 259 245 251 256 256 262 270 269 216 192 196 182 202 177 171 172 164 168 184 193 184 193 208 217 230 240 265 292 306 273
226 246 268 260 251 206 208 244 252 240 212 243 245 256 302 4 323 298 290 293 259 282 276 261 264 266 272 272 262 264 265 264 251 225 191 152 177 134 160 170 170 173 185 207 267 280 264 266 281 285 278 260 259 260
212 181 215 242 234 222 226 227 248 254 273 304 274 269 263 263 263 257 260 274 254 226 274 267 271 265 261 257 259 243 240 234 193 207 195 185 170 170 237 160 140 145 227 244 239 239 245 267 282 295 316 215 247 283
166 184 220 240 257 252 252 252 259 262 265 272 276 279 261 267 268 258 254 246 241 239 246 262 258 278 260 244 243 231 220 207 193 204 231 231 227 233 236 216 190 193 185 191 204 217 222 225 239 261 268 244 249 273
184 198 201 228 257 259 252 248 240 236 246 255 257 261 270 265 264 265 247 233 237 233 239 247 248 269 259 257 259 243 234 249 199 233 219 202 204 199 199 192 199 209 219 226 229 231 238 245 257 259 242 212 217 236
205 213 222 253 260 245 230 212 221 245 239 234 241 237 236 232 238 249 258 250 243 241 242 239 243 245 250 245 240 222 205 217 209 196 200 199 201 203 197 214 222 224 220 229 236 231 223 212 225 220 171 171 198 242